Cloud_Cover
100 91 42 90 100 44 100 100 69 100 100 100 100 100 100 97 27 100 100 100 95 100 100 89 100 100 100 58 67 7 62 99 100 86 16 6 5 5 5 1 2 50 5
100 100 100 76 77 100 100 100 100 100 100 100 100 100 100 100 95 93 100 100 100 100 100 100 100 100 76 84 88 5 96 100 6 87 23 92 6 5 6 5 37 8 5
100 100 100 100 100 100 100 100 100 100 100 100 100 100 100 100 100 41 100 96 88 100 100 100 100 100 100 98 100 85 100 90 89 89 83 79 9 44 5 5 5 2 5
100 86 81 100 100 100 100 100 100 100 100 100 100 100 100 100 100 84 98 84 100 71 100 95 100 100 100 100 100 31 100 9 96 99 85 73 55 28 5 5 6 7 5
55 5 0 3 12 96 100 99 73 76 40 51 70 65 100 100 100 100 100 97 100 100 100 100 50 100 100 100 100 47 99 92 37 87 31 82 100 13 5 5 94 25 26
15 9 0 1 0 1 0 3 0 13 34 89 100 99 100 100 100 100 97 99 100 100 67 82 93 100 100 100 100 8 73 5 96 95 98 55 100 47 5 5 5 68 59
10 24 2 6 1 2 0 0 0 2 5 10 100 100 100 100 100 100 100 93 84 100 100 98 100 100 100 100 11 100 77 28 99 68 16 68 100 96 5 5 10 42 100
77 13 10 3 1 0 0 1 5 5 5 27 100 100 100 100 100 100 99 100 100 100 100 100 100 100 100 100 100 88 66 86 41 66 100 94 100 99 72 94 34 55 99
96 10 0 8 0 0 0 0 4 5 28 95 100 100 100 100 100 100 100 100 100 86 100 100 100 100 100 100 8 5 9 58 78 100 100 100 90 92 10 88 100 45 54
73 100 32 90 44 16 5 3 3 5 63 100 100 100 100 100 100 100 100 100 100 99 100 100 100 100 100 100 85 5 5 99 100 100 100 100 100 78 36 5 91 98 54
0 90 100 19 100 36 60 54 7 5 100 100 100 100 100 100 100 100 100 100 81 99 47 26 98 100 100 97 78 12 5 100 100 100 100 100 91 17 91 48 99 97 100
19 45 96 100 100 82 63 95 100 100 96 100 100 100 100 100 100 94 100 100 100 87 68 100 20 87 95 85 8 5 8 60 100 100 100 100 100 100 38 6 100 100 94
46 43 48 35 91 93 93 66 99 100 74 98 100 100 100 100 100 100 94 100 100 78 99 93 82 99 100 100 100 100 100 76 79 99 100 78 98 100 66 14 23 100 100
99 34 64 29 48 99 100 99 100 87 57 99 100 100 100 100 100 100 100 100 100 100 100 99 98 100 100 90 87 96 100 89 52 100 100 92 100 97 86 86 98 86 95
87 100 100 4 5 100 100 100 100 100 99 99 100 100 100 100 100 100 98 100 93 100 100 100 100 91 100 100 100 51 28 32 62 99 55 76 100 100 94 77 68 100 58
15 87 91 59 0 95 100 83 93 100 100 100 100 100 100 100 70 100 96 86 100 100 100 100 95 100 100 100 100 100 96 81 100 93 91 100 100 52 100 100 97 98 100
10 6 82 100 97 8 100 99 100 79 100 100 100 100 100 100 43 52 100 100 100 100 100 100 82 71 100 88 100 98 86 100 89 76 78 100 100 100 100 100 100 58 99
5 12 5 82 100 95 100 87 100 100 100 100 100 100 100 96 5 99 100 83 46 98 44 97 94 98 71 92 100 100 100 58 100 100 96 100 100 100 100 90 91 100 10
25 99 14 30 100 100 100 82 100 100 100 100 96 100 94 21 16 89 100 95 100 86 58 60 87 91 92 47 56 83 100 100 27 100 100 100 99 62 95 100 68 10 5
1 3 88 0 6 8 22 65 100 100 100 100 100 100 100 28 99 52 44 100 100 100 100 96 44 32 84 64 100 99 82 72 100 100 100 100 100 100 100 94 86 54 53
0 0 4 49 0 16 70 60 100 100 100 98 100 100 15 11 98 100 90 100 58 95 26 38 98 99 97 100 100 58 99 74 83 100 98 98 99 69 89 5 5 54 88
0 0 0 4 2 1 66 35 86 97 100 72 54 100 24 82 59 82 10 27 19 50 71 92 99 100 100 100 100 76 52 100 75 100 100 7 3 10 1 31 6 14 15
0 0 0 0 5 5 44 8 0 2 6 6 80 27 100 6 31 66 15 5 5 5 48 14 67 100 100 100 68 45 95 100 100 98 32 19 28 9 6 5 5 6 1
5 0 0 0 0 2 5 77 0 26 36 92 6 85 32 5 5 10 13 7 58 100 98 94 99 98 100 100 95 58 60 89 100 100 65 87 88 71 5 14 85 33 15
4 1 3 0 0 2 4 1 0 0 90 53 72 27 5 1 0 2 32 14 100 100 96 12 99 100 100 100 99 100 58 71 37 19 71 63 100 100 51 5 6 29 100
0 0 0 5 0 0 5 4 2 0 6 80 31 93 25 46 33 15 12 93 100 100 37 9 92 100 100 100 27 1 4 19 77 90 99 100 100 81 5 4 1 9 59